EA3KZ-1 Weather Reports


time (UTC)temp
C
wind
direction
speed
KPH
gust
KPH
rain 1hr
cm
rain 24hr
cm
rain mn
cm
humidity
%
barometer
mb
20260509075538 15 325 12.9 22.5 0.00 0.00 0.00 80 1008.2
20260509074536 15 4 11.3 22.5 0.00 0.00 0.00 81 1008.4
20260509073533 15 356 8.0 17.7 0.00 0.00 0.00 83 1008.5
20260509072531 15 346 11.3 17.7 0.00 0.00 0.00 84 1008.6
20260509071528 15 343 9.7 17.7 0.00 0.00 0.00 85 1008.8
20260509070526 15 340 9.7 17.7 0.00 0.00 0.00 85 1008.9
20260509065523 15 359 6.4 17.7 0.00 0.00 0.00 85 1008.9
20260509064520 15 329 8.0 17.7 0.00 0.00 0.00 85 1008.9
20260509063518 15 297 6.4 17.7 0.00 0.00 0.00 85 1008.9
20260509062515 14 296 6.4 12.9 0.00 0.00 0.00 86 1009.0
20260509061613 14 327 6.4 11.3 0.00 0.00 0.00 86 1009.2
20260509060610 14 341 4.8 12.9 0.00 0.00 0.00 85 1009.3
20260509055607 14 300 4.8 6.4 0.00 0.00 0.00 84 1009.1
20260509054605 14 305 8.0 14.5 0.00 0.00 0.00 84 1009.0
20260509053602 14 315 8.0 12.9 0.00 0.00 0.00 84 1009.0
20260509052600 14 292 3.2 6.4 0.00 0.00 0.00 84 1009.1
20260509051557 14 347 4.8 9.7 0.00 0.00 0.00 85 1009.0
20260509050554 14 339 3.2 6.4 0.00 0.00 0.00 85 1009.2
20260509045552 14 340 3.2 9.7 0.00 0.00 0.00 85 1009.1
20260509044549 14 347 4.8 9.7 0.00 0.00 0.00 85 1009.1
20260509043547 14 339 4.8 9.7 0.00 0.00 0.00 85 1009.3
20260509042544 14 317 1.6 3.2 0.00 0.00 0.00 85 1009.1
20260509041541 14 298 4.8 9.7 0.00 0.00 0.00 85 1009.2
20260509040539 14 313 1.6 6.4 0.00 0.00 0.00 85 1009.1
20260509035536 14 301 4.8 9.7 0.00 0.00 0.00 85 1009.2
20260509034534 14 358 3.2 6.4 0.00 0.00 0.00 85 1009.3
20260509033531 14 314 4.8 9.7 0.00 0.00 0.00 85 1009.2
20260509032528 14 343 3.2 6.4 0.00 0.00 0.00 85 1009.2
20260509031526 14 313 4.8 9.7 0.00 0.00 0.00 85 1009.3
20260509030523 14 318 1.6 6.4 0.00 0.00 0.00 85 1009.3
20260509025521 14 318 4.8 9.7 0.00 0.00 0.00 85 1009.3
20260509024518 14 294 4.8 9.7 0.00 0.00 0.00 85 1009.4
20260509023515 14 297 6.4 9.7 0.00 0.00 0.00 85 1009.4
20260509022613 14 341 3.2 6.4 0.00 0.00 0.00 85 1009.5
20260509021610 14 319 6.4 11.3 0.00 0.00 0.00 85 1009.4
20260509020608 14 288 4.8 6.4 0.00 0.00 0.00 86 1009.8
20260509015605 14 313 1.6 6.4 0.00 0.00 0.00 86 1009.8
20260509014603 14 297 4.8 9.7 0.00 0.00 0.00 86 1010.0
20260509013600 14 275 3.2 6.4 0.00 0.00 0.00 86 1010.0
20260509012557 14 286 3.2 6.4 0.00 0.00 0.00 85 1010.1
20260509011555 14 297 4.8 9.7 0.00 0.00 0.00 85 1010.1
20260509010552 14 311 6.4 9.7 0.00 0.00 0.00 85 1010.3
20260509005549 14 278 4.8 6.4 0.00 0.00 0.00 84 1010.3
20260509004547 14 316 4.8 9.7 0.00 0.00 0.00 84 1010.4
20260509003544 14 301 3.2 6.4 0.00 0.00 0.00 84 1010.6
20260509002542 14 305 3.2 6.4 0.00 0.00 0.00 83 1010.6
20260509001539 14 320 6.4 11.3 0.00 0.00 0.00 83 1010.6
20260509000536 14 293 6.4 9.7 0.00 0.00 0.00 83 1010.7
20260508235534 14 317 3.2 6.4 0.00 0.00 0.00 83 1010.7
20260508234531 14 324 3.2 6.4 0.00 0.00 0.00 83 1010.7
20260508233529 13 300 4.8 6.4 0.00 0.00 0.00 83 1010.7
20260508232526 13 286 4.8 9.7 0.00 0.00 0.00 83 1010.8
20260508231524 13 311 4.8 9.7 0.00 0.00 0.00 84 1010.8
20260508230521 13 288 6.4 9.7 0.00 0.00 0.00 84 1010.9
20260508225518 13 307 3.2 6.4 0.00 0.00 0.00 85 1010.8
20260508224516 13 280 6.4 9.7 0.00 0.00 0.00 86 1010.8
20260508223613 13 289 4.8 6.4 0.00 0.00 0.00 87 1010.9
20260508222611 13 293 6.4 9.7 0.00 0.00 0.00 87 1010.9
20260508221608 13 298 4.8 6.4 0.00 0.00 0.00 87 1011.0
20260508220606 13 313 3.2 6.4 0.00 0.00 0.00 87 1011.2
20260508215603 13 315 3.2 6.4 0.00 0.00 0.00 87 1011.0
20260508214600 13 302 4.8 6.4 0.00 0.00 0.00 87 1010.9
20260508213558 13 316 3.2 6.4 0.00 0.00 0.00 87 1011.0
20260508212555 13 307 1.6 6.4 0.00 0.00 0.00 86 1011.0
20260508211552 13 332 3.2 6.4 0.00 0.00 0.00 86 1011.0
20260508210550 14 8 1.6 3.2 0.00 0.00 0.00 86 1010.9
20260508205547 14 26 1.6 6.4 0.00 0.00 0.00 86 1011.0
20260508204545 14 350 3.2 6.4 0.00 0.00 0.00 86 1011.0
20260508203542 14 356 1.6 6.4 0.00 0.00 0.00 86 1010.8
20260508202539 14 27 3.2 9.7 0.00 0.00 0.00 86 1010.6
20260508201537 14 7 4.8 9.7 0.00 0.00 0.00 86 1010.4
20260508200534 14 316 3.2 6.4 0.00 0.00 0.00 86 1010.5
20260508195531 14 1 1.6 6.4 0.00 0.00 0.00 85 1010.2
20260508194529 15 352 3.2 6.4 0.00 0.00 0.00 84 1010.2
20260508193526 15 352 4.8 11.3 0.00 0.00 0.00 83 1010.1
20260508192524 15 347 4.8 9.7 0.00 0.00 0.00 82 1010.0
20260508191521 15 16 6.4 11.3 0.00 0.00 0.00 81 1009.9
20260508190518 15 151 3.2 11.3 0.00 0.00 0.00 80 1009.8
20260508185516 15 45 4.8 9.7 0.00 0.00 0.00 80 1009.9
20260508184613 15 17 6.4 12.9 0.00 0.00 0.00 80 1009.9
20260508183611 15 58 4.8 12.9 0.00 0.00 0.00 78 1009.7
20260508182608 16 357 3.2 9.7 0.00 0.00 0.00 77 1009.6
20260508181606 15 34 8.0 17.7 0.00 0.00 0.00 77 1009.5
20260508180603 16 134 3.2 6.4 0.00 0.00 0.00 76 1009.5
20260508175600 16 87 3.2 11.3 0.00 0.00 0.00 75 1009.5
20260508174558 16 75 4.8 12.9 0.00 0.00 0.00 75 1009.4
20260508172553 17 252 3.2 9.7 0.00 0.00 0.00 72 1009.3
20260508171550 16 166 3.2 6.4 0.00 0.00 0.00 71 1009.3
20260508170547 16 69 3.2 11.3 0.00 0.00 0.00 71 1009.2
20260508165545 17 68 4.8 17.7 0.00 0.00 0.00 69 1009.1
20260508164542 17 193 3.2 6.4 0.00 0.00 0.00 68 1009.1
20260508163540 17 59 3.2 9.7 0.00 0.00 0.00 69 1009.1
20260508162537 17 64 6.4 17.7 0.00 0.00 0.00 69 1008.9
20260508161534 17 33 9.7 14.5 0.00 0.00 0.00 69 1008.9
20260508160532 17 41 8.0 17.7 0.00 0.00 0.00 70 1009.1
20260508155530 17 58 8.0 20.9 0.00 0.00 0.00 71 1009.2
20260508154527 17 47 6.4 14.5 0.00 0.00 0.00 70 1009.3
20260508153525 17 82 3.2 14.5 0.00 0.00 0.00 70 1009.2
20260508152522 18 134 4.8 11.3 0.00 0.00 0.00 70 1009.2
20260508151519 18 117 4.8 12.9 0.00 0.00 0.00 69 1009.2
20260508150517 18 139 4.8 11.3 0.00 0.00 0.00 67 1009.0
20260508145614 18 62 6.4 14.5 0.00 0.00 0.00 63 1009.0
20260508144612 18 43 8.0 22.5 0.00 0.00 0.00 63 1009.0
20260508143609 18 38 8.0 20.9 0.00 0.00 0.00 62 1009.0
20260508142607 18 57 6.4 14.5 0.00 0.00 0.00 64 1009.0
20260508141604 18 101 6.4 17.7 0.00 0.00 0.00 64 1009.2
20260508140601 18 36 9.7 17.7 0.00 0.00 0.00 62 1009.4
20260508135559 19 37 6.4 17.7 0.00 0.00 0.00 62 1009.6
20260508134556 19 86 3.2 14.5 0.00 0.00 0.00 61 1009.5
20260508133554 19 110 3.2 6.4 0.00 0.00 0.00 58 1009.7
20260508132551 19 106 3.2 9.7 0.00 0.00 0.00 60 1009.8
20260508131548 18 89 3.2 9.7 0.00 0.00 0.00 60 1009.8
20260508130546 18 54 8.0 22.5 0.00 0.00 0.00 59 1009.7
20260508125543 19 30 3.2 14.5 0.00 0.00 0.00 55 1009.5
20260508124541 18 53 6.4 17.7 0.00 0.00 0.00 54 1009.7
20260508123538 18 115 6.4 22.5 0.00 0.00 0.00 59 1009.8
20260508122538 18 359 3.2 9.7 0.00 0.00 0.00 63 1009.6
20260508121533 19 44 6.4 17.7 0.00 0.00 0.00 59 1009.7
20260508120530 18 189 4.8 11.3 0.00 0.00 0.00 61 1009.8
20260508115527 18 143 3.2 17.7 0.00 0.00 0.00 62 1009.8
20260508114525 18 61 3.2 12.9 0.00 0.00 0.00 64 1009.6
20260508113522 18 5 3.2 12.9 0.00 0.00 0.00 60 1009.7
20260508112520 18 33 3.2 14.5 0.00 0.00 0.00 59 1009.7
20260508111517 17 58 8.0 17.7 0.00 0.00 0.00 63 1009.6
20260508110615 17 192 3.2 9.7 0.00 0.00 0.00 65 1009.6
20260508105612 17 73 3.2 11.3 0.00 0.00 0.00 65 1009.6
20260508104609 17 24 6.4 11.3 0.00 0.00 0.00 67 1009.7
20260508103607 17 354 6.4 17.7 0.00 0.00 0.00 65 1009.9
20260508102604 17 35 1.6 6.4 0.00 0.00 0.00 66 1009.8
20260508101602 18 298 1.6 9.7 0.00 0.00 0.00 64 1010.1
20260508100559 18 18 3.2 9.7 0.00 0.00 0.00 65 1010.0
20260508095556 17 29 4.8 9.7 0.00 0.00 0.00 69 1010.0
20260508094554 17 19 4.8 14.5 0.00 0.00 0.00 67 1010.0
20260508093551 17 7 1.6 9.7 0.00 0.00 0.00 68 1010.1
20260508092548 17 161 1.6 9.7 0.00 0.00 0.00 66 1010.1
20260508091546 17 54 3.2 9.7 0.00 0.00 0.00 66 1009.9
20260508090543 17 71 3.2 6.4 0.00 0.00 0.00 64 1009.9
20260508085540 17 51 4.8 12.9 0.00 0.00 0.00 60 1009.8
20260508084538 17 51 3.2 12.9 0.00 0.00 0.00 59 1009.7
20260508083535 17 37 4.8 11.3 0.00 0.00 0.00 63 1009.6
20260508082533 17 10 4.8 12.9 0.00 0.00 0.00 62 1009.3
20260508081530 17 113 0.0 3.2 0.00 0.00 0.00 60 1009.2
20260508080527 16 32 4.8 9.7 0.00 0.00 0.00 62 1009.1